Amateur radio
NORAD ID: 27607
Int'l Code: 2002-058C
Perigee: 624.6 km
Apogee: 693.3 km
Inclination: 64.6 °
Period: 97.8 minutes
Semi major axis: 7029 km
Launch date: December 20, 2002
Source: Saudi Arabia (SAUD)
Comments: Saudisat 1C is a Saudi Arabian picosatellite that was launched by a Dnepr rocket from Baikonur at 17:00 UT on 20 December 2002.
Two Line Element Set (TLE):
1 27607U 02058C 13137.83978490 .00001019 00000-0 17686-3 0 678
2 27607 064.5577 356.5232 0048917 173.5709 273.2064 14.72907236559245
Source: AFSPC
NASA's NSSDC Master Catalog entry for SAUDISAT 1C